Terug naar catalogus

FENGYUN 1C DEB

ActiefSSO
NORAD 30282·DEBRIS·🇨🇳 China

Gelanceerd May 10, 1999 vanaf Taiyuan Satellite Launch Center

Loading…

Volgende Passages (komende 24 uur)

TLE

VersSource: Space-Track

Epoch: Sep 14, 2026, 22:24 UTC

1 30282U 99025YT  26257.93377108  .00000325  00000-0  16026-3 0  9998
2 30282  98.5118 252.7791 0208423 289.8314  97.2085 14.13278019 12512

Volg FENGYUN 1C DEB in realtime met AllMySat

Download on the App Store